Home   Weather   USA   Birmingham   Past weeks
Flag for USA

Past Weather in Birmingham, Alabama, USA — February 2020

Currently: 75 °F. Broken clouds. (Weather station: Birmingham International Airport, USA). See more current weather

February 2020 Weather in Birmingham — Graph

°F

High & Low Weather Summary for February 2020

 TemperatureHumidityPressure
High76 °F (Feb 12, 3:53 pm)100% (Feb 6, 4:59 am)30.59 "Hg (Feb 6, 4:59 am)
Low26 °F (Feb 22, 4:53 am)25% (Feb 22, 2:53 pm)29.46 "Hg (Feb 6, 7:02 am)
Average51 °F73%30.11 "Hg
* Reported Feb 1 12:17 am — Feb 29 11:53 pm, Birmingham. Weather by CustomWeather, © 2021

Note: Actual official high and low records may vary slightly from our data, if they occured in-between our weather recording intervals... More about our weather records

Birmingham Weather History for February 1, 2020

Scroll right to see more
 ConditionsComfort  
Time TempWeatherWind HumidityBarometerVisibility
12:17 am
Sat, Feb 1
47 °FMostly cloudy.No wind77%30.10 "Hg10 mi
12:37 am47 °FMostly cloudy.No wind77%30.09 "Hg10 mi
12:53 am47 °FMostly cloudy.No wind77%30.09 "Hg10 mi
1:09 am47 °FMostly cloudy.No wind77%30.09 "Hg10 mi
1:17 am47 °FMostly cloudy.No wind77%30.09 "Hg10 mi
1:53 am47 °FMostly cloudy.No wind80%30.09 "Hg10 mi
2:53 am47 °FOvercast.No wind80%30.07 "Hg10 mi
3:53 am47 °FOvercast.No wind80%30.06 "Hg10 mi
4:53 am47 °FOvercast.No wind80%30.06 "Hg10 mi
5:53 am47 °FOvercast.6 mph86%30.07 "Hg8 mi
6:03 am47 °FLow clouds.3 mph86%30.07 "Hg7 mi
6:53 am47 °FLow clouds.5 mph90%30.07 "Hg7 mi
8:04 am47 °FFog.5 mph93%30.08 "Hg2 mi
8:21 am47 °FFog.6 mph93%30.08 "Hg3 mi
8:53 am47 °FFog.7 mph93%30.09 "Hg2 mi
9:06 am47 °FFog.8 mph93%30.09 "Hg2 mi
9:12 am47 °FFog.8 mph93%30.09 "Hg3 mi
9:28 am47 °FFog.9 mph93%30.09 "Hg2 mi
9:53 am48 °FFog.7 mph89%30.09 "Hg5 mi
10:53 am48 °FOvercast.7 mph86%30.09 "Hg7 mi
11:11 am49 °FCloudy.6 mph86%30.09 "Hg10 mi
11:21 am49 °FCloudy.10 mph84%30.09 "Hg10 mi
11:53 am49 °FMostly cloudy.9 mph86%30.07 "Hg10 mi
12:11 pm50 °FCloudy.12 mph80%30.07 "Hg10 mi
12:53 pm50 °FOvercast.9 mph71%30.05 "Hg10 mi
1:53 pm51 °FMore clouds than sun.10 mph66%30.04 "Hg10 mi
2:53 pm50 °FOvercast.14 mph59%30.05 "Hg10 mi
3:53 pm49 °FOvercast.9 mph61%30.07 "Hg10 mi
4:53 pm48 °FOvercast.8 mph63%30.08 "Hg10 mi
6:53 pm47 °FMostly cloudy.6 mph66%30.11 "Hg10 mi
8:53 pm44 °FClear.6 mph73%30.15 "Hg10 mi
9:53 pm40 °FClear.No wind83%30.14 "Hg10 mi
10:53 pm42 °FClear.6 mph82%30.14 "Hg10 mi
11:53 pm37 °FClear.No wind89%30.13 "Hg10 mi
Weather by CustomWeather, © 2021

See weather overview